{"data":{"norad_id":67101,"intl_designator":"2025-298AC","name":"STARLINK-36200","alt_names":[],"object_type":"PAYLOAD","status":"ACTIVE","operator":null,"country":"US","launch_date":"2025-12-14","launch_site_code":"AFWTR","launch_vehicle":null,"mission":null,"orbit_class":"UNKNOWN","rcs_meters":null,"size_class":null,"mass_kg":null,"dimensions":null,"purposes":["comms"],"wikipedia_slug":null,"has_3d_model":false,"image_url":null,"decayed_at":null,"tle_current":{"epoch":"2026-09-20T16:42:05.655456Z","epoch_age_seconds":61322,"freshness":"FRESH","line1":"1 67101U 25298AC  26263.69589879  .00002972  00000+0  25678-3 0  9991","line2":"2 67101  69.9996 242.9254 0003620 269.5426  90.5318 14.98333374 42421","mean_motion":14.98333374,"eccentricity":0.000362,"inclination_deg":69.9996,"raan_deg":242.9254,"arg_perigee_deg":269.5426,"mean_anomaly_deg":90.5318,"bstar":0.00025678,"rev_number":4242,"period_min":96.106782708559,"perigee_km":569.52949109783,"apogee_km":574.56142319681,"semimajor_km":6950.1824571473,"source":"CELESTRAK","updated_at":"2026-09-21T09:00:36.103103Z"}}}